Letecké školy

Flying Academy USA

Flying Academy USA

Miami, FL & Los Angeles, CA

Flying Academy ČR

Flying Academy ČR

Praha & Brno, Česká Republika

Letecká škola Flying Academy

Letecká škola Flying Academy má více než 12 let zkušeností s výcvikem profesionálních pilotů v Evropě a přes 30 let v USA. Jsme jednou z nejdynamičtěji rostoucích leteckých škol poskytujících vysoký standard leteckého výcviku v prostředí simulujícím atmosféru v aeroliniích.

  • Flying Academy je EASA certifikovaná výcviková organizace (CZ/ATO-014) a FAA certifikovaná letecká škola podle Part 141 & 61, působíme v České Republice a v USA
  • Naši instruktoři jsou současně i piloty aerolinií – získáte reálné zkušenosti pilota
  • Dostanete zdarma iPad mini při zahájení ab-initio výcvikového programu
  • Naše výcvikové kurzy jsou navrženy pro budoucí EASA a FAA soukromé a komerční piloty

Vítejte ve světě, kde práce je náš koníček! Každý v našem týmu ve Flying Academy se těší z úspěchů našich studentů. Diky skvělému zázemí, přístupu a nabídce naší letecké školy se ujistíte, že jste na správném místě k dosažení Vašich snů ve Flying Academy.

Proč si vybrat Flying Academy - přečtěte si více >>

 

Novinky

Flying Academy Vás srdečně zve na Dny otevřených dveří!

Vybrat si správnou výcvikovou organizaci je velmi zásadním krokem v životě každého pilota, proto neváhejte a přijďte se na vlastní oči podívat, jak probíhá výcvik v jedné z nejlepších mezinárodních organizací ve Flying Academy!


Ve dnech 24.3.18 budete mít možnost navštívit naše pobočky v Brně a v Praze, získat informace o teoretické a praktické přípravě, setkat se s našimi instruktory, prohlédnout si výcvikové letouny a nebo rovnou zkusit vstupní let.

Ať už jste Vy nebo Vaši blízcí příznivci létání a sníte o vlastním pilotním průkazu, budete mít navíc skvělou možnost získat speciální slevové vouchery na teoretickou přípravu PPL a ATPL! 

 

celý článek >>

Flying Academy pořádá udržovací seminář FI, IRI v Brně

Letecká škola Flying Academy pořádá udržovací seminář letového instruktora (FI) a instruktora přístrojové kvalifikace (IRI) nutný pro prodloužení těchto kvalifikací. Seminář je dvoudenní a bude se konat 24. a 25. února od 9 do 16 hodin v prostorách letecké školy v Brně - Tuřanech. Poplatek za seminář činí 4000 Kč plus DPH.

 

Obsah udržovacího semináře FI a IRI

V Udržovacím semináři budou probírány: Stávající a nové předpisy, výuka a sebevzdělávání, techniky výuky, role instruktora, bezpečnost v letectví, prevence incidentů a nehod, letecké umění, právní aspekty a postupy vymáhání, dovednost v navigaci, výuka létání podle přístrojů. Podrobnější program bude stanoven před zahájením kurzu.

Po ukončení semináře vám bude kurz zapsán do logbooku. Seminář je v souladu s předpisem AMC 1 FCL.940.FI(a)(2)FI a mohou se ho účastnit i instruktoři z jiných leteckých škol.

 

celý článek >>

Zapomeňte na zimu! Létejte ve slunném Miami nebo Los Angeles.

Zapomeňte na zimní podmínky v Evropě. Chopte se příležitosti a létejte svůj Time Building v USA. Vyberte si Miami nebo Los Angeles a létejte nad nádhernými sceneriemi hor, moří nebo národních parků a získejte zkušenosti, které nikde jinde nezískáte. Naše základny nabízejí jedinečnou příležitost létat v oblastech s největším leteckým provozem na světě. Získejte zkušenosti s létáním a s radiokomunikací v takovém prostředí.

celý článek >>

více článků

Blog

Zahraniční letecká zkušenost, kterou získáte jen s Flying Academy v Miami

Díky otevření nové pobočky Flying Academy v Miami ve Spojených státech dostalo mnoho studentů, kteří dosud znali jen evropský vzdušný prostor, příležitost vyzkoušet si výcvik dle předpisů FAA v americkém vzdušném prostoru. Díky výhodným balíčkům Time Buildingu, které Flying Academy nabízí, se pilotům s evropskou licencí veškerý nálet v Americe započítá po jejich návratu do České republiky.

Student Abdollah Mohammadpour, který se zúčastnil výcviku 0-ATPL, vysvětluje, jak tato zkušenost změnila celý jeho pohled na letecký výcvik: "Jako student, pilot se zkušenostmi pouze v neřízeném vzdušném prostoru s malým provozem, jsem se rozhodl využít příležitosti od Flying Academy a rozšířit své znalosti v USA. Po příletu do Miami na mě čekal řidič od Flying Academy, který mě odvezl do vily. Vila se nacházela jen pár minut jízdy od letiště a měla na zahradě i velký bazén. Personál Flying Academy mi se vším pomáhal stejně jako v Praze."

pokračovat ve čtení >>

více článků

0 - 500 hodin

Flying Academy s.r.o.
Beranových 130
Praha 9 - Letnany
199 00

800 884 888

+420 228 882 444

www.flyingacademy.cz
pilot@FlyingAcademy.cz

facebook.com/FlyingAcademy
twitter.com/FlyingAcademy
youtube.com/FlyingAcademy

Aktuální počasí

LKTB

LKTB 250835Z 05009KT 9999 -SN FEW020 SCT026 M10/M15 Q1026 RMK REG QNH 1021

LKPR

LKPR 250830Z 02004KT CAVOK M10/M15 Q1026 NOSIG

LKKV

LKKV 250830Z 04006KT 360V090 CAVOK M12/M16 Q1024

KTMB

KTMB 250853Z AUTO 12004KT 10SM OVC090 23/19 A3014 RMK AO2 SLP204 T02280194 56004

Začněte program 0-1500 a získejte 1500 letových hodin s Flying Academy Získejte více informací